Location: Friaudour
(46.0460°N, 1.2873°E)
Time: 10:10:50
(UTC+00:00)

SeaSat 1 - Pass Details

Date: 14 July 2020
Orbit: 744 x 747 km, 108.0° (Epoch: 05 August)

Event Time Altitude Azimuth Distance (km) Brightness Sun altitude
Rises 00:37:29 0° 43° (NE) 3,200 6.6 -21.8°
Reaches altitude 10° 00:40:33 10° 63° (ENE) 2,270 5.4 -21.7°
Maximum altitude 00:43:45 17° 104° (ESE) 1,824 4.4 -21.6°
Enters shadow 00:45:01 16° 122° (ESE) 1,899 4.3 -21.6°
